Location: Newark
(54.5739°N, 1.2333°W)
Time: 10:06:10
(UTC+00:00)

N. Korean satellite - Visible Passes

Search period start: 19 November 2019 00:00
Search period end: 29 November 2019 00:00
Orbit: 456 x 506 km, 97.2° (Epoch: 18 November)

Date Brightness Start Highest point End Pass type
(mag) Time Alt. Az. Time Alt. Az. Time Alt. Az.
19 Nov 6.9 06:06:53 10° NNE 06:10:37 73° ESE 06:14:18 10° S visible
19 Nov 6.6 16:48:34 10° SSE 16:52:14 79° ENE 16:55:59 10° NNW visible
19 Nov 10.1 18:24:29 10° WSW 18:26:10 13° W 18:27:52 10° WNW visible
20 Nov 8.1 05:41:37 10° NNE 05:45:09 39° E 05:48:38 10° SSE visible
20 Nov 9.4 17:57:36 10° SW 18:00:30 22° W 18:03:26 10° NW visible
21 Nov 9.2 05:16:35 10° NE 05:19:36 23° E 05:22:34 10° SE visible
21 Nov 7.0 06:49:37 10° N 06:53:09 41° WNW 06:56:38 10° SW visible
21 Nov 8.3 17:31:30 10° SSW 17:34:56 37° W 17:38:26 10° NNW visible
22 Nov 10.0 04:52:04 10° ENE 04:53:56 13° E 04:55:48 10° ESE visible
22 Nov 6.5 06:24:06 10° N 06:27:50 74° WNW 06:31:30 10° SSW visible
22 Nov 7.0 17:05:47 10° S 17:09:27 69° WSW 17:13:11 10° NNW visible
23 Nov 7.2 05:58:43 10° NNE 06:02:25 60° E 06:06:02 10° S visible
23 Nov 6.6 16:40:24 10° SSE 16:44:03 65° ENE 16:47:47 10° N visible
23 Nov 9.9 18:15:39 10° SW 18:17:53 15° W 18:20:07 10° NW visible
24 Nov 8.5 05:33:31 10° NNE 05:36:55 33° E 05:40:14 10° SSE visible
24 Nov 7.5 07:07:01 10° N 07:10:15 28° WNW 07:13:26 10° SW visible
24 Nov 9.1 17:49:06 10° SSW 17:52:14 26° W 17:55:24 10° NW visible
25 Nov 9.5 05:08:36 10° NE 05:11:18 19° E 05:13:59 10° SE visible
25 Nov 6.8 06:41:22 10° N 06:44:58 49° WNW 06:48:30 10° SW visible
25 Nov 7.9 17:23:07 10° S 17:26:41 45° W 17:30:18 10° NNW visible
26 Nov 10.2 04:44:31 10° ENE 04:45:36 11° E 04:46:42 10° ESE visible
26 Nov 6.6 06:15:53 10° NNE 06:19:37 89° WNW 06:23:15 10° SSW visible
26 Nov 6.7 16:57:30 10° SSE 17:01:13 83° WSW 17:04:58 10° NNW visible
26 Nov 10.3 18:34:36 10° W 18:35:16 10° W 18:35:55 10° WNW visible
27 Nov 7.6 05:50:33 10° NNE 05:54:09 49° E 05:57:41 10° S visible
27 Nov 6.8 16:32:13 10° SSE 16:35:51 54° ENE 16:39:31 10° N visible
27 Nov 9.7 18:06:57 10° SW 18:09:33 18° W 18:12:10 10° NW visible
28 Nov 8.8 05:25:25 10° NE 05:28:37 27° E 05:31:45 10° SSE visible
28 Nov 7.3 06:58:42 10° N 07:02:03 33° WNW 07:05:20 10° SW visible
28 Nov 8.7 17:40:37 10° SSW 17:43:56 30° W 17:47:17 10° NNW visible
